Weather History for Goshen, IN

Change the Weather History Date:

Saturday, November 3, 2012

  Actual Average Record
Temperature  
Mean Temperature 34 °F -  
Max Temperature 44 °F 54 °F 75 °F (1987)
Min Temperature 26 °F 37 °F 13 °F (1951)
Degree Days  
Heating Degree Days 30    
Moisture  
Dew Point 28 °F    
Average Humidity 76    
Maximum Humidity 93    
Minimum Humidity 57    
Precipitation  
Precipitation 0.00 in - - ()
Sea Level Pressure  
Sea Level Pressure 30.18 in    
Wind  
Wind Speed 4 mph (North)    
Max Wind Speed 8 mph    
Max Gust Speed -    
Visibility 10 miles    
Events      
Averages and records for this station are not official NWS values.
T = Trace of Precipitation, MM = Missing Value Source: NWS Daily Summary

Daily Weather History Graph

Daily Weather History Graph

Search for Another Location

Airport:

Trip Planner

Search our weather history database for the weather conditions in past years. The results will help you decide how hot, cold, wet, or windy it might be!

Date:

Astronomy

Nov. 03, 2012 Rise Set
Actual Time 8:17 AM EDT 6:34 PM EDT
Civil Twilight 7:48 AM EDT 7:03 PM EDT
Nautical Twilight 7:16 AM EDT 7:36 PM EDT
Astronomical Twilight 6:43 AM EDT 8:09 PM EDT
Moon 10:14 PM EDT (11/3) 12:22 PM EDT (11/3)
Length of Visible Light 11h 14m
Length of Day
10h 17m
Waning Gibbous, 80% of the Moon is Illuminated
Nov 3
Waning Gibbous
Nov 6
Last Quarter
Nov 13
New
Nov 20
First Quarter
Nov 28
Full

Hourly Weather History & Observations

Time (EDT) Temp. Windchill Dew Point Humidity Pressure Visibility Wind Dir Wind Speed Gust Speed Precip Events Conditions
12:53 AM 33.1 °F 27.7 °F 28.9 °F 85% 30.14 in 10.0 mi NNW 5.8 mph - N/A   Clear
1:53 AM 30.0 °F 25.2 °F 27.0 °F 88% 30.16 in 10.0 mi NW 4.6 mph - N/A   Clear
2:53 AM 30.0 °F - 27.0 °F 88% 30.17 in 10.0 mi Calm Calm - N/A   Clear
3:53 AM 28.9 °F - 27.0 °F 92% 30.17 in 8.0 mi Calm Calm - N/A   Clear
4:20 AM 26.6 °F 22.6 °F 24.8 °F 93% 30.15 in 2.0 mi NW 3.5 mph - N/A   Clear
4:29 AM 28.4 °F 23.3 °F 24.8 °F 86% 30.15 in 7.0 mi NNW 4.6 mph - N/A   Clear
4:53 AM 27.0 °F 23.0 °F 25.0 °F 92% 30.17 in 10.0 mi NNW 3.5 mph - N/A   Clear
5:53 AM 27.0 °F 23.0 °F 24.1 °F 89% 30.17 in 9.0 mi North 3.5 mph - N/A   Clear
6:53 AM 28.0 °F 21.7 °F 25.0 °F 88% 30.17 in 10.0 mi NE 5.8 mph - N/A   Clear
7:53 AM 28.0 °F - 25.0 °F 88% 30.19 in 10.0 mi Calm Calm - N/A   Clear
8:53 AM 27.0 °F - 24.1 °F 89% 30.21 in 10.0 mi Calm Calm - N/A   Clear
9:53 AM 32.0 °F - 30.0 °F 92% 30.22 in 8.0 mi Calm Calm - N/A   Clear
10:53 AM 35.1 °F - 30.9 °F 85% 30.23 in 10.0 mi Calm Calm - N/A   Clear
11:53 AM 39.0 °F 34.0 °F 30.9 °F 73% 30.23 in 10.0 mi NE 6.9 mph - N/A   Scattered Clouds
12:01 PM 37.4 °F 32.8 °F 30.2 °F 75% 30.21 in 10.0 mi NNE 5.8 mph - N/A   Mostly Cloudy
12:49 PM 39.2 °F 33.6 °F 30.2 °F 70% 30.19 in 10.0 mi NNE 8.1 mph - N/A   Scattered Clouds
12:53 PM 39.0 °F 34.8 °F 30.0 °F 70% 30.22 in 10.0 mi NNE 5.8 mph - N/A   Partly Cloudy
1:46 PM 41.0 °F 35.8 °F 28.4 °F 61% 30.17 in 10.0 mi NNE 8.1 mph - N/A   Mostly Cloudy
1:53 PM 41.0 °F 38.0 °F 28.9 °F 62% 30.19 in 10.0 mi North 4.6 mph - N/A   Scattered Clouds
2:06 PM 42.8 °F 38.0 °F 30.2 °F 61% 30.17 in 10.0 mi North 8.1 mph - N/A   Mostly Cloudy
2:53 PM 41.0 °F - 28.9 °F 62% 30.19 in 10.0 mi Calm Calm - N/A   Mostly Cloudy
3:00 PM 42.8 °F 38.0 °F 28.4 °F 57% 30.16 in 10.0 mi NNE 8.1 mph - N/A   Scattered Clouds
3:53 PM 43.0 °F 38.8 °F 30.0 °F 60% 30.17 in 10.0 mi North 6.9 mph - N/A   Scattered Clouds
4:53 PM 42.1 °F 38.4 °F 30.0 °F 62% 30.17 in 10.0 mi North 5.8 mph - N/A   Mostly Cloudy
5:53 PM 41.0 °F 37.1 °F 30.0 °F 65% 30.18 in 10.0 mi ENE 5.8 mph - N/A   Mostly Cloudy
6:53 PM 39.0 °F - 28.9 °F 67% 30.18 in 10.0 mi Calm Calm - N/A   Mostly Cloudy
7:53 PM 39.0 °F - 30.0 °F 70% 30.19 in 10.0 mi Calm Calm - N/A   Overcast
8:53 PM 39.0 °F 36.8 °F 30.9 °F 73% 30.19 in 10.0 mi NNE 3.5 mph - N/A   Mostly Cloudy
9:53 PM 37.9 °F 32.7 °F 28.9 °F 70% 30.19 in 10.0 mi NNE 6.9 mph - N/A   Overcast
10:53 PM 36.0 °F - 28.0 °F 73% 30.20 in 10.0 mi Calm Calm - N/A   Mostly Cloudy
11:53 PM 30.9 °F - 26.1 °F 82% 30.21 in 10.0 mi Calm Calm - N/A   Scattered Clouds